TimeEDT,TemperatureF,Dew PointF,Humidity,Sea Level PressureIn,VisibilityMPH,Wind Direction,Wind SpeedMPH,Gust SpeedMPH,PrecipitationIn,Events,Conditions,WindDirDegrees,DateUTC
12:15 AM,66.2,59.2,78,30.00,10.0,North,3.5,-,N/A,,Overcast,360,2013-10-12 04:15:00
12:35 AM,66.2,59.0,78,30.00,10.0,Calm,Calm,-,N/A,,Overcast,0,2013-10-12 04:35:00
12:55 AM,66.2,59.0,78,30.00,10.0,Calm,Calm,-,N/A,,Overcast,0,2013-10-12 04:55:00
1:15 AM,64.9,59.5,83,30.00,10.0,Calm,Calm,-,N/A,,Overcast,0,2013-10-12 05:15:00
1:35 AM,64.8,59.9,84,30.00,10.0,Calm,Calm,-,N/A,,Overcast,0,2013-10-12 05:35:00
1:55 AM,64.9,59.4,82,30.00,10.0,Calm,Calm,-,N/A,,Overcast,0,2013-10-12 05:55:00
2:15 AM,65.3,59.9,83,30.00,10.0,Calm,Calm,-,N/A,,Overcast,0,2013-10-12 06:15:00
2:35 AM,65.3,60.1,83,30.00,10.0,Calm,Calm,-,N/A,,Overcast,0,2013-10-12 06:35:00
2:55 AM,65.3,59.9,83,30.00,10.0,ENE,4.6,-,N/A,,Overcast,60,2013-10-12 06:55:00
3:15 AM,64.9,59.9,84,29.99,10.0,Calm,Calm,-,N/A,,Overcast,0,2013-10-12 07:15:00
3:35 AM,64.6,60.1,85,30.00,10.0,Calm,Calm,-,N/A,,Overcast,0,2013-10-12 07:35:00
3:55 AM,63.9,59.9,87,30.00,10.0,Calm,Calm,-,N/A,,Overcast,0,2013-10-12 07:55:00
4:15 AM,63.5,59.9,88,30.00,10.0,Calm,Calm,-,N/A,,Overcast,0,2013-10-12 08:15:00
4:35 AM,63.5,59.9,88,30.00,10.0,Calm,Calm,-,N/A,,Overcast,0,2013-10-12 08:35:00
4:55 AM,63.5,59.9,88,30.00,10.0,Calm,Calm,-,N/A,,Overcast,0,2013-10-12 08:55:00
5:15 AM,63.5,59.9,88,30.01,10.0,Calm,Calm,-,N/A,,Overcast,0,2013-10-12 09:15:00
5:35 AM,63.0,59.9,90,30.01,10.0,Calm,Calm,-,N/A,,Overcast,0,2013-10-12 09:35:00
5:55 AM,62.8,59.9,90,30.02,10.0,Calm,Calm,-,N/A,,Overcast,0,2013-10-12 09:55:00
6:15 AM,62.6,59.5,90,30.02,10.0,Calm,Calm,-,N/A,,Overcast,0,2013-10-12 10:15:00
6:35 AM,62.8,59.9,90,30.03,10.0,Calm,Calm,-,N/A,,Overcast,0,2013-10-12 10:35:00
6:55 AM,62.8,59.9,90,30.03,1.8,Calm,Calm,-,N/A,,Overcast,0,2013-10-12 10:55:00
7:15 AM,62.6,59.5,90,30.04,10.0,Calm,Calm,-,N/A,,Overcast,0,2013-10-12 11:15:00
7:35 AM,62.6,59.9,91,30.04,10.0,Calm,Calm,-,N/A,,Overcast,0,2013-10-12 11:35:00
7:55 AM,62.8,59.9,90,30.05,0.2,Calm,Calm,-,N/A,Fog,Fog,0,2013-10-12 11:55:00
8:15 AM,62.8,59.9,90,30.05,10.0,Calm,Calm,-,N/A,,Overcast,0,2013-10-12 12:15:00
8:35 AM,63.7,60.1,88,30.05,10.0,Calm,Calm,-,N/A,,Overcast,0,2013-10-12 12:35:00
8:55 AM,64.4,59.4,84,30.06,10.0,Calm,Calm,-,N/A,,Overcast,0,2013-10-12 12:55:00
9:15 AM,65.1,60.4,85,30.06,10.0,Calm,Calm,-,N/A,,Overcast,0,2013-10-12 13:15:00
9:35 AM,65.5,59.9,82,30.07,10.0,Calm,Calm,-,N/A,,Overcast,0,2013-10-12 13:35:00
9:55 AM,66.0,59.9,81,30.07,10.0,Calm,Calm,-,N/A,,Overcast,0,2013-10-12 13:55:00
10:15 AM,66.4,59.9,80,30.07,4.0,Calm,Calm,-,N/A,,Haze,0,2013-10-12 14:15:00
10:35 AM,67.1,59.4,76,30.07,1.8,North,3.5,-,N/A,,Haze,10,2013-10-12 14:35:00
10:55 AM,68.9,59.4,72,30.07,0.5,Calm,Calm,-,N/A,,Haze,0,2013-10-12 14:55:00
11:15 AM,68.9,59.5,72,30.07,2.5,Calm,Calm,-,N/A,,Haze,0,2013-10-12 15:15:00
11:35 AM,70.0,59.5,69,30.07,5.0,Calm,Calm,-,N/A,,Haze,0,2013-10-12 15:35:00
11:55 AM,68.7,59.4,72,30.07,5.0,Calm,Calm,-,N/A,,Haze,0,2013-10-12 15:55:00
12:15 PM,69.6,59.4,70,30.07,0.2,Calm,Calm,-,N/A,,Haze,0,2013-10-12 16:15:00
12:35 PM,69.1,59.5,72,30.07,0.2,Calm,Calm,-,N/A,,Haze,0,2013-10-12 16:35:00
12:55 PM,69.4,59.7,71,30.07,0.2,NNW,3.5,-,N/A,,Haze,340,2013-10-12 16:55:00
1:15 PM,68.9,61.2,76,30.07,0.2,Calm,Calm,-,N/A,,Haze,0,2013-10-12 17:15:00
1:35 PM,68.7,60.4,75,30.06,4.0,Calm,Calm,-,N/A,,Haze,0,2013-10-12 17:35:00
1:55 PM,69.3,61.0,75,30.05,7.0,Calm,Calm,-,N/A,,Overcast,0,2013-10-12 17:55:00
2:15 PM,69.3,61.9,77,30.05,7.0,Calm,Calm,-,N/A,,Overcast,0,2013-10-12 18:15:00
2:35 PM,69.6,62.2,77,30.05,0.5,Calm,Calm,-,N/A,,Haze,0,2013-10-12 18:35:00
2:55 PM,70.5,63.0,77,30.05,0.2,Calm,Calm,-,N/A,,Haze,0,2013-10-12 18:55:00
3:15 PM,69.8,61.9,76,30.05,0.2,Calm,Calm,-,N/A,,Haze,0,2013-10-12 19:15:00
3:35 PM,69.8,62.1,76,30.06,0.2,NNE,3.5,-,N/A,,Haze,20,2013-10-12 19:35:00
3:55 PM,70.9,62.6,75,30.06,0.2,NE,3.5,-,N/A,,Haze,50,2013-10-12 19:55:00
4:15 PM,71.1,61.7,72,30.06,0.2,Calm,Calm,-,N/A,,Haze,0,2013-10-12 20:15:00
4:35 PM,71.1,62.6,75,30.06,0.2,Calm,Calm,-,N/A,,Haze,0,2013-10-12 20:35:00
4:55 PM,70.9,62.6,75,30.07,0.8,Calm,Calm,-,N/A,,Haze,0,2013-10-12 20:55:00
5:15 PM,70.7,62.4,75,30.07,10.0,ENE,3.5,-,N/A,,Overcast,70,2013-10-12 21:15:00
5:35 PM,69.8,62.8,78,30.07,4.0,Calm,Calm,-,N/A,,Haze,0,2013-10-12 21:35:00
5:55 PM,68.9,63.1,82,30.08,1.8,ENE,8.1,-,N/A,,Haze,60,2013-10-12 21:55:00
6:15 PM,67.3,63.0,86,30.09,2.0,ENE,3.5,-,N/A,,Light Drizzle,60,2013-10-12 22:15:00
6:35 PM,66.4,63.0,89,30.09,1.8,ENE,4.6,-,N/A,,Light Drizzle,70,2013-10-12 22:35:00
6:55 PM,65.5,62.6,90,30.09,2.5,East,5.8,-,N/A,,Drizzle,80,2013-10-12 22:55:00
7:15 PM,65.3,62.4,90,30.10,3.0,ENE,4.6,-,N/A,,Overcast,60,2013-10-12 23:15:00
7:35 PM,64.9,62.2,91,30.10,2.0,ENE,5.8,-,N/A,,Drizzle,70,2013-10-12 23:35:00
7:55 PM,65.3,62.1,89,30.11,2.0,East,4.6,-,N/A,,Drizzle,80,2013-10-12 23:55:00
8:15 PM,64.9,62.1,90,30.11,1.8,ENE,3.5,-,N/A,,Light Drizzle,70,2013-10-13 00:15:00
8:35 PM,65.3,62.4,90,30.11,5.0,Calm,Calm,-,N/A,,Overcast,0,2013-10-13 00:35:00
8:55 PM,65.3,62.1,89,30.11,10.0,NE,3.5,-,N/A,,Overcast,50,2013-10-13 00:55:00
9:15 PM,65.1,62.1,90,30.12,10.0,Calm,Calm,-,N/A,,Overcast,0,2013-10-13 01:15:00
9:35 PM,65.1,62.1,90,30.12,10.0,Calm,Calm,-,N/A,,Overcast,0,2013-10-13 01:35:00
9:55 PM,65.3,62.1,89,30.12,10.0,Calm,Calm,-,N/A,,Overcast,0,2013-10-13 01:55:00
10:15 PM,64.9,62.1,90,30.12,10.0,Calm,Calm,-,N/A,,Overcast,0,2013-10-13 02:15:00
10:35 PM,64.9,62.1,90,30.13,10.0,Calm,Calm,-,N/A,,Overcast,0,2013-10-13 02:35:00
10:55 PM,64.8,61.9,90,30.12,10.0,East,5.8,-,N/A,,Overcast,80,2013-10-13 02:55:00
11:15 PM,64.8,62.1,91,30.12,4.0,NE,5.8,-,N/A,,Overcast,50,2013-10-13 03:15:00
11:35 PM,64.0,61.3,91,30.13,4.0,ENE,4.6,-,N/A,,Overcast,70,2013-10-13 03:35:00
11:55 PM,63.5,60.8,91,30.12,7.0,ENE,4.6,-,N/A,,Overcast,70,2013-10-13 03:55:00